Showing default

IRIDIUM 116, 43072

Orbit data source: Space-Track

IRIDIUM 116, 43072 is a payload satellite owned by Iridium (US) in LEO that was launched on Sat, 23 Dec 2017 UTC via an FALCON 9 launch vehicle from the Air Force Western Test Range (AFWTR). Payload-class satellites include a variety of spacecraft equipped with specific instruments for various scientific and technological missions. These include communications satellites like Starlink; space stations such as the ISS; scientific satellites like the Hubble; Earth observation satellites from companies like Planet Labs, Umbra, and HawkEye 360; GPS; miniature CubeSats for education and research; and military/defense satellites.

Loading next visibility...
Identifier
43072, 2017-083C
Orbit
LEO
Last TLE update
17 hours ago
Origin
Manufacturer
OATK SSG Gilbert
Mission
Operational Commercial Communications
Bus & Motor
ELITEBUS, Unknown motor
Mass
860 kg wet, 700 kg dry
Launch date (UTC)
2017-12-23 (7 years ago)
Launch vehicle
FALCON 9
Launch site
Air Force Western Test Range (AFWTR)
Object type
Payload
Rocket body
Debris
Shape & HBR
Trap Box + 2 Pan, 9.4 m
Radar Cross Section
14.423 m², Large (>1 m²)

Expand to show TLE details & history

TLE from 17 hours ago
0 IRIDIUM 116
1 43072U 17083C   25128.55758422  .00000064  00000-0  15924-4 0  9996
2 43072  86.3942 131.1763 0002602  90.9809 269.1685 14.34217783386179
Epoch: 2025-05-08T13:22Z
Definitive object data (Epoch: 2025-05-08T13:22:55.276Z)
Latitude
-0.00002°
Longitude
63.81962°
Altitude
780.745 km
Speed
7.463 km/s
True Right ascension
08h 44m 42s
True Declination
0° 00' 00"
Sunlit
Object was in daylight at TLE epoch
Visualization TLE readout
Latitude
50.36693°
Longitude
67.86399°
Altitude
784.339 km
Speed
7.467 km/s
Apparent Right ascension
05h 36m 46s
Apparent Declination
12° 49' 41"
Sunlit
Object is in daylight
Visualization observer readout
Local Sidereal Time
14:30:26
Azimuth
310.285° NW
Elevation
-21.81°
Doppler factor
1
Orbital elements
Apogee altitude
776.493 km
Perigee altitude
772.77 km
Semi-major axis
7,152.769 km
Eccentricity
0.0002602
Inclination
86.3942°
RAAN
131.1763°
Arg. of periapsis
90.9809°
True anomaly
269.13869°
Mean anomaly
269.1685°
Eccentric anomaly
269.15359°
Mean motion
3.58783 °/min
BSTAR
0.000015924
Orbital period
100.34 mins
Loading maneuver chart data...
Loading SW <> Apogee altitude chart data...
Loading historical data...
Loading historical data...
Loading historical data...
Loading historical data...
Loading historical data...
Loading historical data...
Loading historical data...

IRIDIUM 116 Visibility forecast

Observer location: undefined°, undefined°

Span
Click to sort rows by Start time (UTC) header in descending order
Start Az.
Max El. time (UTC)
Max El. Az.
Max El.
End time (UTC)
End Az.
9 mins2025-05-09 11:43:37.089Z14.538° NNE2025-05-09 11:47:37.089Z74.885° E33.983°2025-05-09 11:52:37.089Z153.555° SSE
6 mins2025-05-09 13:25:37.089Z315.521° NNW2025-05-09 13:28:37.089Z273.131° WNW19.157°2025-05-09 13:31:37.089Z235.656° WSW
8 mins2025-05-10 00:40:37.089Z182.671° SSW2025-05-10 00:43:37.089Z199.362° SSW44.713°2025-05-10 00:48:37.089Z1.836° NNE
|